Regional Weather Roundup
Issued by NWS

Home | Current Version | Previous Version | Graphics & Text | Print | Product List | Glossary On
Versions: 1 2 3 4 5 6 7 8 9 10 11 12 13 14 15 16 17 18 19 20 21 22 23 24 25 26 27 28 29 30 31 32 33 34 35 36 37 38 39 40 41 42 43 44 45 46 47 48 49 50
409
ASUS43 KOAX 241110
RWRNE

WEATHER ROUNDUP FOR NEBRASKA
NATIONAL WEATHER SERVICE OMAHA NE
600 AM CDT THU MAY 24 2018

NOTES: SATELLITE DATA IS BEING USED TO AUGMENT CLOUD COVER ABOVE
       12000 FEET.
       "FAIR" INDICATES FEW OR NO CLOUDS BELOW 12,000 FEET WITH NO
       SIGNIFICANT WEATHER AND/OR OBSTRUCTIONS TO VISIBILITY.


NEZ001>004-019>022-054>056-241200-
NEBRASKA PANHANDLE

CITY           SKY/WX    TMP DP  RH WIND       PRES   REMARKS
SCOTTSBLUFF    CLEAR     49  48  97 NW3       30.02S
ALLIANCE       CLEAR     46  46 100 W5        30.01S
CHADRON        CLEAR     51  49  92 SW7       29.96R
GORDON         FAIR      54  51  88 SW3       30.00R
KIMBALL        CLEAR     48  46  94 CALM      30.06R
SIDNEY         PTCLDY    52  51  97 NW12      30.02S
$$

NEZ057>060-069>072-079>082-241200-
SOUTHWEST NEBRASKA

CITY           SKY/WX    TMP DP  RH WIND       PRES   REMARKS
NORTH PLATTE   MOCLDY    61  58  90 E8        30.00R
IMPERIAL       MOCLDY    61  56  83 S7        29.97S
LEXINGTON      CLOUDY    65  59  80 CALM      30.02R THUNDER
MCCOOK         MOCLDY    61  56  83 SE6       29.95F
OGALLALA       CLOUDY    63  59  88 E10       29.98S
$$

NEZ005>010-023>029-035>040-094-241200-
NORTH CENTRAL NEBRASKA

CITY           SKY/WX    TMP DP  RH WIND       PRES   REMARKS
VALENTINE      MOCLDY    62  56  80 S12       29.95F
AINSWORTH      CLOUDY    61  58  90 S9        29.97R
BROKEN BOW     TSTM      62  59  90 NE7       30.03S
O`NEILL        CLOUDY    64  58  80 CALM      30.00F
ORD            MOCLDY    63  58  83 SE5       30.02S
THEDFORD       MOCLDY    58  56  94 SE5       30.02R
$$

NEZ041-046>049-061>064-073>077-083>087-241200-
SOUTH CENTRAL NEBRASKA

CITY           SKY/WX    TMP DP  RH WIND       PRES   REMARKS
GRAND ISLAND   CLOUDY    66  63  90 S8        30.01S
AURORA         PTCLDY    67  64  89 S12       30.01S
HASTINGS       PTCLDY    67  62  84 S9        30.01F
HEBRON         MOCLDY    68  64  85 S3        30.02F
HOLDREGE       MOCLDY    62  59  90 S9        30.00F
KEARNEY        PTCLDY    64  58  80 S10       30.01S
YORK           MOCLDY    68  68 100 S9        30.03R
$$

NEZ011>018-030>034-042>045-241200-
NORTHEAST NEBRASKA

CITY           SKY/WX    TMP DP  RH WIND       PRES   REMARKS
NORFOLK        CLOUDY    70  64  81 W5        30.04R
ALBION         RAIN      66  65  94 CALM      30.04S
BLAIR          CLEAR     71  65  84 S10       30.04S
COLUMBUS       CLOUDY    71  64  78 S6        30.03R
FREMONT        PTCLDY    71  65  81 SE7       30.03R
TEKAMAH        MOCLDY    65  63  93 SE7       30.02S
WAYNE          CLOUDY    68  67  96 SW5       30.03R
$$

NEZ050>053-065>068-078-088>093-241200-
SOUTHEAST NEBRASKA

CITY           SKY/WX    TMP DP  RH WIND       PRES   REMARKS
LINCOLN        CLOUDY    67  63  87 S8        30.03S
OMAHA EPPLEY   MOCLDY    70  64  81 S6        30.03F
BEATRICE       CLOUDY    68  65  90 S7        30.04R
FALLS CITY     PTCLDY    67  64  90 SE8       30.05F
NEBRASKA CITY  CLEAR     69  69  99 S12       30.04F
PLATTSMOUTH    CLEAR     68  65  89 SE8       30.04F
$$

NEZ044-045-051>053-067-241200-
OMAHA AREA

CITY           SKY/WX    TMP DP  RH WIND       PRES   REMARKS
OMAHA EPPLEY   MOCLDY    70  64  81 S6        30.03F
BLAIR          CLEAR     71  65  84 S10       30.04S
FREMONT        PTCLDY    71  65  81 SE7       30.03R
MILLARD        PTCLDY    69  66  89 SE6       30.03S
OFFUTT AFB     CLOUDY    67  64  91 SE7       30.03S
PLATTSMOUTH    CLEAR     68  65  89 SE8       30.04F
WAHOO          FAIR      68  64  85 S9        30.02S
$$




USA.gov is the U.S. government's official web portal to all federal, state and local government web resources and services.